AO-07 1 07530U 74089B 17243.82209676 -.00000022 00000-0 14159-3 0 9998 2 07530 101.6385 211.0389 0011945 173.6418 301.0076 12.53628537958332 UO-11 1 14781U 84021B 17243.33625080 .00000098 00000-0 18393-4 0 9995 2 14781 97.6907 286.2543 0007459 321.7766 38.2918 14.82921985801489 LO-19 1 20442U 90005G 17243.77020651 .00000022 00000-0 24122-4 0 9990 2 20442 98.5778 179.5277 0010657 286.9058 73.0957 14.32868132442440 HUBBLE 1 20580U 90037B 17243.43303067 .00000639 00000-0 28439-4 0 9995 2 20580 28.4688 230.2917 0002459 261.3336 232.3470 15.08827402301665 MET-2/21 1 22782U 93055A 17242.80029146 .00000001 00000-0 -12657-4 0 9996 2 22782 082.5511 324.3751 0021612 219.0302 277.4174 13.83803234211741 AO-27 1 22825U 93061C 17243.13021347 .00000006 00000-0 20081-4 0 9997 2 22825 98.8200 209.6627 0009438 109.9064 250.3136 14.30004104248116 IO-26 1 22826U 93061D 17242.86423431 .00000023 00000-0 26332-4 0 9991 2 22826 098.8141 209.4664 0010036 101.9537 258.2771 14.30333529248009 FO-29 1 24278U 96046B 17243.07084939 -.00000055 00000-0 -22028-4 0 9995 2 24278 98.5516 116.3286 0350962 143.2263 219.3515 13.53077699 39000 NOAA-15 1 25338U 98030A 17243.51318579 .00000047 00000-0 38835-4 0 9999 2 25338 98.7820 254.5728 0010382 354.6546 5.4521 14.25813407 3732 GO-32 1 25397U 98043D 17242.83549045 -.00000001 00000-0 18670-4 0 9992 2 25397 098.6137 183.6145 0002131 116.5454 243.5943 14.23627279994198 ISS 1 25544U 98067A 17243.86529757 .00001771 00000-0 34141-4 0 9999 2 25544 51.6436 21.0613 0004470 210.8540 252.9380 15.54014888 73525 NO-44 1 26931U 01043C 17243.40945889 -.00000010 00000-0 27857-4 0 9998 2 26931 67.0495 257.1111 0006857 257.4998 102.5337 14.30471072831105 SO-50 1 27607U 02058C 17243.17611294 .00000048 00000-0 27445-4 0 9993 2 27607 64.5540 256.4058 0031719 58.4040 302.0152 14.75352050790179 CO-55 1 27844U 03031E 17243.00951167 .00000070 00000-0 51517-4 0 9998 2 27844 98.6904 250.9288 0010691 126.8140 233.4020 14.22055322734954 CO-57 1 27848U 03031J 17243.87415232 .00000058 00000-0 46174-4 0 9994 2 27848 98.6996 252.0715 0010506 133.4785 226.7268 14.21668001734953 RS-22 1 27939U 03042A 17243.85711471 .00000196 00000-0 43733-4 0 9990 2 27939 97.9499 26.2043 0012673 352.4614 162.0764 14.66592088744404 NOAA-18 1 28654U 05018A 17243.50267925 .00000036 00000-0 45006-4 0 9990 2 28654 99.1794 267.5449 0013715 217.2575 142.7645 14.12346834632892 CO-58 1 28895U 05043F 17243.65883024 .00000230 00000-0 53144-4 0 9993 2 28895 97.8736 42.5088 0015449 264.3839 95.5602 14.63426621631528 Falconsat-3 1 30776U 07006E 17243.54090899 .00003972 00000-0 12441-3 0 9993 2 30776 35.4369 308.4442 0003726 284.0623 75.9688 15.32654312579829 CO-65 1 32785U 08021C 17243.36085944 .00000320 00000-0 40522-4 0 9994 2 32785 97.5638 264.1894 0011559 280.7530 79.2386 14.87932767506072 AAUSAT2 1 32788U 08021F 17243.05038766 .00000893 00000-0 88936-4 0 9999 2 32788 97.5539 276.1956 0010585 235.7416 124.2802 14.93956926506858 DO-64 1 32789U 08021G 17243.15629271 .00001875 00000-0 13593-3 0 9995 2 32789 97.5537 299.7913 0012303 198.8722 161.2051 15.05088633508146 CO-66 1 32791U 08021J 17243.04268542 .00000407 00000-0 47332-4 0 9995 2 32791 97.5598 268.4796 0011883 263.4108 96.5758 14.90284362506295 RS-30 1 32953U 08025A 17243.85850851 .00000026 00000-0 11299-3 0 9997 2 32953 82.5047 192.5997 0019951 117.4505 242.8607 12.43078878420823 PRISM 1 33493U 09002B 17243.82580269 .00000494 00000-0 49909-4 0 9992 2 33493 98.1565 129.4120 0014792 188.1733 171.9241 14.95762784467084 NOAA-19 1 33591U 09005A 17243.44170894 .00000084 00000-0 70717-4 0 9997 2 33591 99.1002 211.3648 0014983 62.5595 297.7098 14.12206626441287 TISAT-1 1 36799U 10035E 17243.33627900 .00000542 00000-0 61603-4 0 9991 2 36799 98.0703 7.6244 0013812 81.9722 278.3062 14.90464933386974 JUGNU 1 37839U 11058B 17242.75649852 .00000326 00000-0 32045-4 0 9996 2 37839 019.9626 358.3311 0018887 285.8241 227.3781 14.12590693304143 SRMSAT 1 37841U 11058D 17243.77059660 .00000301 00000-0 19990-4 0 9991 2 37841 19.9729 35.4181 0011763 191.2032 300.8428 14.10581387303964 AO-71 1 37854U 11061E 17243.21618433 .00001198 00000-0 71702-4 0 9991 2 37854 101.6938 154.9904 0166764 212.8049 146.2723 15.04302961318216 HRBE 1 37855U 11061F 17242.67868432 .00001522 00000-0 87230-4 0 9991 2 37855 101.7068 151.9378 0179855 221.3932 137.3535 15.03272646317514 ALMASAT-1 1 38078U 12006B 17243.40959096 .00025319 37747-5 27436-3 0 9992 2 38078 69.4366 289.5418 0299435 180.5157 179.5754 15.24904895296246 HORYU-2 1 38340U 12025D 17242.48665909 .00000321 00000-0 55415-4 0 9991 2 38340 098.3781 249.0317 0012846 059.3449 300.9024 14.75378553273836 RS-40 1 38735U 12041C 17243.81577492 .00000013 00000-0 21601-4 0 9992 2 38735 82.4726 277.0292 0016074 220.2270 139.7621 12.42575154231088 BEESAT-3 1 39134U 13015E 17243.39219234 .00002195 00000-0 11524-3 0 9993 2 39134 64.8648 343.6702 0039335 251.5134 108.1715 15.18014910240893 BEESAT-2 1 39136U 13015G 17243.22267960 .00001709 00000-0 99626-4 0 9996 2 39136 64.8713 355.9666 0033533 272.7841 86.9446 15.15258024240647 ZACUBE-1 1 39417U 13066B 17243.10185365 .00000301 00000-0 44460-4 0 9992 2 39417 97.6236 281.6867 0059901 26.3351 334.0886 14.80750436203860 TRITON-1 1 39427U 13066M 17242.85366960 .00000243 00000-0 46554-4 0 9997 2 39427 97.6376 253.2072 0115810 109.3487 252.0282 14.67493496201999 GOMX-1 1 39430U 13066Q 17243.61742583 .00000268 00000-0 57382-4 0 9993 2 39430 97.6691 236.9209 0152229 164.2744 196.3263 14.58904367200930 LO-74 1 39440U 13066AA 17242.70750511 .00000346 00000-0 55286-4 0 9991 2 39440 097.6247 269.9096 0082046 059.2546 301.6712 14.75490208201888 AO-73 1 39444U 13066AE 17243.58458574 .00000429 00000-0 59680-4 0 9990 2 39444 97.6251 283.2965 0058933 21.3295 339.0355 14.81492918202774 SPROUT 1 39770U 14029E 17243.83495541 .00000674 00000-0 82614-4 0 9990 2 39770 97.8753 342.4779 0010869 81.5680 278.6766 14.86340216177377 DUCHIFAT-1 1 40021U 14033M 17243.31506780 .00000684 00000-0 76859-4 0 9992 2 40021 97.9137 156.5762 0014435 56.9155 303.3446 14.89957488173787 NANOSATCBR1 1 40024U 14033Q 17243.75448165 .00000595 00000-0 68735-4 0 9990 2 40024 97.9093 155.7833 0013736 57.0527 303.2009 14.89274835173792 EO-79 1 40025U 14033R 17243.30403148 .00000442 00000-0 53646-4 0 9990 2 40025 97.9071 154.2620 0013913 61.2907 298.9706 14.88467832173663 DTUSAT-2 1 40030U 14033W 17243.73174424 .00000439 00000-0 53771-4 0 9990 2 40030 97.9034 153.7237 0013317 55.3478 304.8992 14.88089648173682 EO-80 1 40032U 14033Y 17243.30655568 .00000407 00000-0 50393-4 0 9990 2 40032 97.9041 153.3054 0013258 56.9814 303.2675 14.88023949173616 ANTELSAT 1 40034U 14033AA 17243.17413924 .00000293 00000-0 51264-4 0 9996 2 40034 97.8483 124.7414 0060312 52.5038 308.1633 14.73735170171977 VELOX-1 1 40057U 14034E 17243.75914607 .00000384 00000-0 61833-4 0 9994 2 40057 98.1923 345.1288 0011379 169.1381 191.0076 14.77173952170919 DAURIA DX 1 1 40071U 14037C 17243.73249843 .00000151 00000-0 26888-4 0 9997 2 40071 98.3445 357.8298 0008674 161.6060 198.5473 14.81041439170150 UKUBE-1 1 40074U 14037F 17243.76697096 .00000356 00000-0 50349-4 0 9996 2 40074 98.3546 2.1123 0005210 153.3856 206.7638 14.83550569170387 HODOYOSHI-1 1 40299U 14070B 17243.78344488 .00000832 00000-0 39040-4 0 9992 2 40299 97.4007 325.3706 0012934 179.8607 276.4366 15.22367864156444 CHUBUSAT-1 1 40300U 14070C 17243.75229961 .00000944 00000-0 45515-4 0 9998 2 40300 97.3917 322.2560 0019844 192.3955 266.7113 15.20977703156273 QSAT-EOS 1 40301U 14070D 17243.80918823 .00002175 00000-0 93406-4 0 9997 2 40301 97.3858 322.5752 0026968 188.1925 281.9912 15.23447241156345 FIREBIRD FU3 1 40377U 15003B 17243.74108935 .00004166 00000-0 17719-3 0 9999 2 40377 99.1216 82.7853 0136287 111.8357 249.7431 15.15699552142451 FIREBIRD FU4 1 40378U 15003C 17243.79832025 .00004100 00000-0 17420-3 0 9996 2 40378 99.1218 82.8967 0136524 111.5499 250.0343 15.15716412142462 GRIFEX 1 40379U 15003D 17243.77415436 .00003505 00000-0 15843-3 0 9993 2 40379 99.1245 80.3278 0142468 120.1059 241.4378 15.13193566142316 NO-84 1 40654U 15025D 17243.43961461 .00008979 00000-0 16273-3 0 00685 2 40654 054.9926 260.0407 0180935 095.2671 266.8997 15.34555297011264 NO-83 1 40655U 15025E 17243.23648383 .00014940 00000-0 21298-3 0 00733 2 40655 054.9784 231.3611 0146934 111.4441 250.2309 15.45021057011271 DEORBITSAIL 1 40719U 15032E 17242.68807993 .00000548 00000-0 86718-4 0 9999 2 40719 097.9710 135.4819 0015005 264.4679 095.4819 14.76122331115313 NUDT-PHONESAT 1 40900U 15049B 17243.83505005 .00004295 00000-0 20379-3 0 9999 2 40900 97.4440 250.6998 0012819 328.4460 31.6004 15.19729872107946 XW-2A 1 40903U 15049E 17243.80988405 .00003572 00000-0 94279-4 0 9996 2 40903 97.4178 270.4403 0014601 1.0045 359.1227 15.39053268109276 XW-2C 1 40906U 15049H 17243.82103601 .00001286 00000-0 72999-4 0 9993 2 40906 97.4566 247.8091 0014030 317.8807 42.1345 15.14651296107682 XW-2D 1 40907U 15049J 17243.86516604 .00001286 00000-0 72770-4 0 9996 2 40907 97.4536 247.5968 0013346 315.8176 44.1989 15.14762426107691 LILACSAT-2 1 40908U 15049K 17243.80705666 .00000741 00000-0 45308-4 0 9991 2 40908 97.4640 247.2426 0014923 314.0950 45.9053 15.13188345107600 XW-2F 1 40910U 15049M 17243.82232581 .00001983 00000-0 10741-3 0 9998 2 40910 97.4554 248.3603 0014062 312.9372 47.0680 15.15698090107609 XW-2B 1 40911U 15049N 17243.74107602 .00001335 00000-0 75518-4 0 9990 2 40911 97.4578 247.8890 0013259 316.7359 43.2831 15.14721858107572 DCBB 1 40912U 15049P 17243.77497264 .00001338 00000-0 69391-4 0 9995 2 40912 97.4522 250.3681 0014160 304.4330 141.1589 15.17812987107759 TW-1C 1 40926U 15051B 17243.87662243 .00007943 00000-0 17773-3 0 9999 2 40926 97.2239 282.8736 0009495 251.7654 229.2985 15.43696074108593 TW-1A 1 40928U 15051D 17243.83982258 .00002955 00000-0 84864-4 0 9992 2 40928 97.2219 278.2936 0010571 289.0932 177.7010 15.36580292108316 IO-86 1 40931U 15052B 17243.82914983 .00000709 00000-0 96841-5 0 9990 2 40931 5.9992 53.3787 0013409 238.2333 121.6643 14.76538996104160 GomX-3 1 40949U 98067HA 16292.18357804 .08527750 12374-4 77882-3 0 9992 2 40949 51.6055 106.7696 0006699 286.1344 73.8944 16.38002265 59645 LQSat 1 40958U 15057A 17243.71921169 .00000033 00000-0 12954-4 0 9998 2 40958 97.9730 317.7016 0017889 179.8309 180.2907 14.72980195102239 AO-85 1 40967U 15058D 17243.47297479 .00000040 00000-0 23975-4 0 00750 2 40967 064.7780 350.5029 0175923 050.2680 311.3753 14.75475913010901 ATHENOXAT-1 1 41168U 15077C 17243.86031250 .00002323 00000-0 93592-4 0 9994 2 41168 14.9900 336.5431 0012038 345.0116 318.7726 15.11775833 94507 ChubuSat-2 1 41338U 16012B 17243.69278107 .00000549 00000-0 36538-4 0 9993 2 41338 31.0044 352.7059 0013825 86.6504 273.5712 14.99783429 84333 ChubuSat-3 1 41339U 16012C 17243.67728151 .00000396 00000-0 24274-4 0 9995 2 41339 31.0123 351.8265 0013630 92.5044 267.7153 14.99984891 84318 Horyu-4 1 41340U 16012D 17243.61755753 .00000850 00000-0 58810-4 0 9997 2 41340 31.0063 349.1836 0014099 101.7048 258.5170 15.00662716 84357 OUFTI-1 1 41458U 16025C 17242.86110954 .00002637 00000-0 14323-3 0 9990 2 41458 098.1789 284.7044 0174057 040.5173 320.8860 15.03447136073808 e-st@r-II 1 41459U 16025D 17243.15647738 .00001527 00000-0 84942-4 0 9991 2 41459 98.1814 284.9568 0175451 39.9262 321.4719 15.03268876 73836 AAUSAT4 1 41460U 16025E 17243.83946821 .00003217 00000-0 17360-3 0 9990 2 41460 98.1735 285.8254 0167669 35.6984 325.5310 15.04263867 73960 NODES 1 1 41477U 98067HX 17243.63328624 .00291356 45906-4 61405-3 0 9997 2 41477 51.6219 327.3609 0007569 358.0766 2.0213 15.98298777 74069 NODES 2 1 41478U 98067HY 17243.53099271 .00256785 37366-4 60154-3 0 9998 2 41478 51.6265 329.0033 0007226 356.0927 4.0024 15.96426450 74036 LO-87 1 41557U 16033B 17243.82471962 .00002731 00000-0 10469-3 0 9997 2 41557 97.4596 323.3368 0015906 100.0321 260.2713 15.27269299 69974 NuSat2 1 41558U 16033C 17243.60350782 .00002468 00000-0 95454-4 0 9995 2 41558 97.4624 323.1787 0015310 99.3925 260.9046 15.27087710 69937 Lapan A3 1 41603U 16040E 17243.85357819 .00000141 00000-0 98942-5 0 9991 2 41603 97.4542 304.9062 0013855 163.3600 321.4073 15.19389388 66144 Swayam 1 41607U 16040J 17243.85743878 .00002627 00000-0 12121-3 0 9993 2 41607 97.4541 305.3745 0014726 165.6879 194.4777 15.21032363 66107 Pratham 1 41783U 16059A 17242.17030341 .00000051 00000-0 19488-4 0 9999 2 41783 98.1605 302.7532 0032338 289.5764 70.1947 14.62852928 49419 AlSat 1N 1 41789U 16059G 17243.66949746 .00000093 00000-0 27058-4 0 9996 2 41789 98.1603 304.8822 0027039 278.8733 80.9418 14.64068469 49656 ScatSat 1 41790U 16059H 17243.58981127 .00000012 00000-0 14451-4 0 9992 2 41790 98.3037 290.9460 0016957 259.2544 100.6742 14.50851828 49197 TY-1 1 41844U 16066D 17243.82004836 .00001453 00000-0 66109-4 0 9997 2 41844 97.4074 249.8408 0015504 340.4923 143.7266 15.22218506 44840 CAS-2T 1 41845U 16066E 17243.69499681 .00000193 00000-0 39565-4 0 9995 2 41845 98.7757 261.1222 0367338 24.3080 337.4953 14.37783221 42345 Pegasus-1 1 41846U 16066F 17242.81229122 .00000701 00000-0 11682-3 0 9994 2 41846 098.7791 259.9494 0369747 028.4737 333.6113 14.37080421042191 STARS-C 1 41895U 98067KR 17243.77003377 .00054506 00000-0 53518-3 0 9993 2 41895 51.6375 11.6302 0004013 255.7963 104.2587 15.65491749 39813 Tancredo 1 1 41931U 98067KT 17243.71856154 .00153498 00000-0 92000-3 0 9996 2 41931 51.6339 4.4645 0003587 262.1192 97.9401 15.76807631 35479 TO-89 1 41932U 98067KU 17243.40996673 .00016623 00000-0 19872-3 0 9998 2 41932 51.6410 16.7684 0004837 191.0295 169.0593 15.61131090 35287 AOBA-V3LOX3 1 41935U 98067KX 17242.80483950 .00025534 00000-0 29583-3 0 9994 2 41935 051.6405 019.4712 0004250 194.5946 165.4926 15.61640498035294 OSNSAT 1 41939U 98067KZ 17243.71193551 .00064807 00000-0 56927-3 0 9992 2 41939 51.6372 9.7290 0004498 213.1035 146.9681 15.68178217 34759 EO-88 1 42017U 17008BX 17243.72432422 .00002978 00000-0 12883-3 0 9994 2 42017 97.4889 305.0180 0005453 329.2421 30.8495 15.23229081 29988 HAVELSAT 1 42700U 98067LH 17243.76620192 .00023417 00000-0 31625-3 0 9990 2 42700 51.6401 19.8730 0006133 247.1399 112.8946 15.57633800 16712 SOMP2 1 42701U 98067LJ 17243.77485993 .00022070 00000-0 30169-3 0 9996 2 42701 51.6406 19.9348 0006101 247.1087 112.9261 15.57347558 16705 Columbia 1 42702U 98067LK 17243.75674299 .00053449 00000-0 64693-3 0 9997 2 42702 51.6397 19.0602 0006409 248.0637 111.9675 15.60118921 16646 PHOENIX 1 42706U 98067LP 17243.77124552 .00024278 00000-0 33013-3 0 9995 2 42706 51.6407 19.9127 0001504 222.6572 137.4304 15.57443224 16623 X-CubeSat 1 42707U 98067LQ 17243.77168621 .00024322 00000-0 33000-3 0 9997 2 42707 51.6400 19.9117 0001502 224.5753 135.5119 15.57500979 16619 qbee 1 42708U 98067LR 17243.51768091 .00021870 00000-0 29823-3 0 9990 2 42708 51.6400 21.2158 0001536 224.3224 135.7645 15.57433988 16531 ZA-AeroSat 1 42713U 98067LU 17243.41064771 .00013245 00000-0 18703-3 0 9991 2 42713 51.6403 22.0006 0002275 175.0706 185.0308 15.56908736 16226 LINK 1 42714U 98067LV 17243.78235067 .00033903 00000-0 45467-3 0 9990 2 42714 51.6396 19.9803 0002146 190.3466 169.7482 15.57627993 16392 UPSat 1 42716U 98067LX 17243.76776864 .00029392 00000-0 39326-3 0 9999 2 42716 51.6403 19.8864 0004534 251.5260 108.5239 15.57757806 16415 SpaceCube 1 42717U 98067LY 17243.78297118 .00024260 00000-0 33157-3 0 9997 2 42717 51.6402 19.9864 0004491 249.8343 110.2166 15.57299857 15651 Hoopoe 1 42718U 98067LZ 17243.77554653 .00029271 00000-0 39488-3 0 9997 2 42718 51.6404 19.9395 0004535 249.7887 110.2618 15.57538998 15658 Challenger 1 42721U 98067MA 17243.77889557 .00035669 00000-0 47194-3 0 9996 2 42721 51.6397 19.9562 0007498 230.6815 129.3513 15.57937164 15350 NJUST-1 1 42722U 98067MB 17243.43116542 .00016613 00000-0 23491-3 0 9999 2 42722 51.6400 22.1345 0007385 227.1646 132.8725 15.56639172 15293 UNSW-EC0 1 42723U 98067MC 17243.80034552 .00029589 00000-0 40321-3 0 9998 2 42723 51.6401 20.1030 0007279 229.3312 130.7048 15.57245949 15336 DUTHsat 1 42724U 98067MD 17243.85134075 .00036813 00000-0 48993-3 0 9996 2 42724 51.6403 19.6922 0006524 233.9083 126.1306 15.57773190 15262 LO-90 1 42725U 98067ME 17243.88215931 .00022255 00000-0 31093-3 0 9999 2 42725 51.6404 19.8983 0006407 232.8722 127.1685 15.56751901 15267 nSIGHT1 1 42726U 98067MF 17243.77622936 .00012071 00000-0 17708-3 0 9997 2 42726 51.6408 20.6921 0006254 232.0286 128.0141 15.55956826 15259 QBITO 1 42728U 98067MH 17243.41923839 .00016252 00000-0 22656-3 0 9999 2 42728 51.6406 22.0598 0003698 238.2908 121.7723 15.57062115 15003 Aalto-2 1 42729U 98067MJ 17243.80413566 .00024518 00000-0 33771-3 0 9998 2 42729 51.6403 20.1279 0003688 239.1504 120.9125 15.57086766 15079 SUSat 1 42730U 98067MK 17243.42271751 .00015411 00000-0 21627-3 0 9995 2 42730 51.6403 22.0792 0003725 235.5216 124.5424 15.56929121 15009 i-INSPIRE II 1 42731U 98067ML 17243.41258337 .00019768 00000-0 27077-3 0 9994 2 42731 51.6395 22.0053 0007094 179.3765 180.7237 15.57364541 15058 PolyITAN-2-SAU 1 42732U 98067MM 17243.86599374 .00025664 00000-0 35192-3 0 9992 2 42732 51.6392 19.7823 0007185 179.9958 180.1035 15.57160213 15123 SNUSAT-1 1 42733U 98067MN 17243.80860984 .00023911 00000-0 33059-3 0 9998 2 42733 51.6398 20.1500 0007091 180.6959 179.4024 15.56982453 15119 ExAlta-1 1 42734U 98067MP 17242.45000738 .00026260 00000-0 35802-3 0 9990 2 42734 51.6397 26.8278 0008898 199.3926 160.6729 15.57286073 14851 Aoxiang-1 1 42735U 98067MQ 17242.97956717 .00017692 00000-0 24917-3 0 9999 2 42735 51.6403 24.3678 0008029 222.1429 137.8946 15.56690308 16359 BeEagleSat 1 42736U 98067MR 17243.81245546 .00021677 00000-0 30206-3 0 9991 2 42736 51.6402 20.1804 0007901 225.0708 134.9643 15.56829302 15173 Atlantis 1 42737U 98067MS 17243.74918777 .00049595 00000-0 62390-3 0 9995 2 42737 51.6385 19.7538 0007867 227.7381 132.2945 15.59123289 15067 CAS-4B 1 42759U 17034B 17243.75741898 .00000350 00000-0 35427-4 0 9991 2 42759 43.0183 231.8440 0006676 95.3965 267.1972 15.08960140 11721 CAS-4A 1 42761U 17034D 17243.75467593 .00000371 00000-0 36661-4 0 9995 2 42761 43.0180 231.8130 0006892 101.2750 267.0219 15.09034312 11712 UCLSat 1 42765U 17036A 17243.16313892 .00001921 00000-0 90014-4 0 9992 2 42765 97.4435 302.1182 0012530 20.4190 339.7544 15.20847705 10614 NIUSat 1 42766U 17036B 17242.89085679 .00001311 00000-0 64703-4 0 9990 2 42766 97.4439 301.7193 0016679 5.6320 354.4952 15.19568469 10436 LituanicaSAT 2 1 42768U 17036D 17243.14793730 .00003054 00000-0 14545-3 0 9999 2 42768 97.4437 301.9856 0016257 7.4915 352.6559 15.19787851 10482 InflateSail 1 42770U 17036F 17243.84072696 .03130948 00000-0 29940-1 0 9999 2 42770 97.4400 303.9743 0016007 271.5440 88.3548 15.62935217 10606 Aalto 1 1 42775U 17036L 17242.73683294 .00002092 00000-0 10000-3 0 9997 2 42775 97.4406 301.6165 0013964 5.8146 354.3306 15.20050955 10362 URSA MAIOR 1 42776U 17036M 17243.59089224 .00001566 00000-0 75550-4 0 9993 2 42776 97.4438 302.4681 0014305 4.7408 355.3959 15.20094931 10490 Max Valier Sat 1 42778U 17036P 17243.17869779 .00001576 00000-0 75208-4 0 9991 2 42778 97.4453 302.1154 0013048 12.8178 347.3387 15.20484399 10428 Pegasus 1 42784U 17036V 17243.16909244 .00001787 00000-0 84303-4 0 9999 2 42784 97.4438 302.1124 0013066 19.8635 340.3106 15.20708363 10422 NUDATSat 1 42787U 17036Y 17242.90043575 .00002110 00000-0 98504-4 0 9998 2 42787 97.4435 301.8566 0012922 21.5115 338.6572 15.20868697 10223 SUCHAI 1 1 42788U 17036Z 17242.90157641 .00001651 00000-0 77896-4 0 9999 2 42788 97.4422 301.8559 0012807 20.7926 339.3688 15.20815993 10457 SKCUBE 1 42789U 17036AA 17242.24182972 .00002159 00000-0 10078-3 0 9994 2 42789 097.4437 301.2087 0012624 023.5114 336.6696 15.20851991010278 VZLUSAT 1 1 42790U 17036AB 17242.63310528 .00002542 00000-0 11777-3 0 9992 2 42790 097.4435 301.6011 0012304 022.9071 337.2711 15.20947913010331 VENTA 1 1 42791U 17036AC 17242.23716934 .00002172 00000-0 10110-3 0 9999 2 42791 097.4436 301.2144 0012251 024.5947 335.5870 15.20952383010263 Robusta 1B 1 42792U 17036AD 17242.89425054 .00001820 00000-0 85134-4 0 9990 2 42792 97.4440 301.8629 0012182 22.9749 337.1944 15.20977012 10387 D-SAT 1 42794U 17036AF 17243.14559388 .00001237 00000-0 58545-4 0 9997 2 42794 97.4430 302.1363 0010370 21.5589 338.6082 15.21196448 10411 BIRD-J 1 42820U 98067MU 17243.41589131 .00014395 00000-0 20842-3 0 9996 2 42820 51.6400 22.7803 0003079 163.7230 196.3861 15.56143875 8565 BIRD-G 1 42821U 98067MV 17243.41757307 .00013723 00000-0 19953-3 0 9994 2 42821 51.6400 22.7914 0003156 166.2648 193.8430 15.56076493 8549 BIRD-M 1 42822U 98067MW 17242.84032287 .00017907 00000-0 25833-3 0 9996 2 42822 51.6402 25.6865 0003187 167.5612 192.5459 15.56054432 8454 BIRD-B 1 42823U 98067MX 17243.41982046 .00014324 00000-0 20816-3 0 9994 2 42823 51.6402 22.8082 0006676 186.4394 173.6513 15.56033714 8549 BIRD-N 1 42824U 98067MY 17243.42178789 .00013961 00000-0 20355-3 0 9991 2 42824 51.6407 22.8215 0006476 187.6727 172.4166 15.55971715 8535 TechnoSat 1 42829U 17042E 17243.80031926 .00000240 00000-0 29875-4 0 9996 2 42829 97.6096 151.7603 0015945 82.3677 277.9352 14.90649657 7221 Mayak 1 42830U 17042F 17243.19480871 .00000920 00000-0 99027-4 0 9998 2 42830 97.6102 151.1836 0016306 81.3574 278.9491 14.90719825 7129 OBJECT MZ 1 42910U 98067MZ 17243.77381144 .00017454 00000-0 25914-3 0 9993 2 42910 51.6392 21.4190 0007572 210.3746 149.6808 15.55267867 2207 OBJECT NA 1 42911U 98067NA 17243.83859390 .00019811 00000-0 29347-3 0 9997 2 42911 51.6411 21.1042 0007121 206.0877 153.9756 15.55234553 2194 OBJECT NB 1 42912U 98067NB 17243.83965806 .00017036 00000-0 25481-3 0 9990 2 42912 51.6377 21.1047 0006583 219.2112 140.8403 15.55091873 2213 OBJECT NC 1 42913U 98067NC 17238.82675469 .00016730 00000-0 25065-3 0 9995 2 42913 051.6427 046.1239 0006231 205.7669 154.3470 15.55062539001408 OBJECT ND 1 42914U 98067ND 17237.79908745 .00013768 00000-0 20907-3 0 9995 2 42914 51.6406 51.2658 0006620 185.3923 174.7453 15.54866714 1274 /EX